AirNav   Free Bose Alto or Rondo audio sunglasses
 
 1491 users online  

85CO Anderson Heliport
Niwot, Colorado, USA

GOING TO NIWOT?


FAA INFORMATION EFFECTIVE 05 NOVEMBER 2020

Location

FAA Identifier: 85CO
Lat/Long: 40-06-44.9460N 105-09-41.9470W
40-06.749100N 105-09.699117W
40.1124850,-105.1616519
(estimated)
Elevation: 5160 ft. / 1573 m (estimated)
Variation: 12E (1986)
From city: 3 miles NW of NIWOT, CO
Time zone: UTC -7 (UTC -6 during Daylight Saving Time)
Zip code: 80503

Heliport Operations

Heliport use: Private use. Permission required prior to landing
Activation date: 03/1986
Control tower: no
ARTCC: DENVER CENTER
FSS: DENVER FLIGHT SERVICE STATION
Attendance: UNATNDD
Wind indicator: lighted
Segmented circle: no

Heliport Communications

WX AWOS-3 at LMO (3 nm N): 120.0 (303-684-7545)
WX AWOS-3 at BDU (5 nm SW): 118.825 (303-541-9540)
WX AWOS-3 at EIK (8 nm SE): 133.825 (303-604-4339)
WX AWOS-3 at BJC (12 nm S): PHONE 720-887-8067

Nearby radio navigation aids

VOR radial/distance  VOR name  Freq  Var
BJCr344/12.0JEFFCO VOR/DME115.4011E
DVVr290/27.9MILE HIGH VORTAC114.7008E
DENr300/29.2DENVER VOR/DME117.9008E
FQFr305/35.5FALCON VORTAC116.3011E
GLLr217/36.4GILL VOR/DME114.2013E

Heliport Services

Runway Information

Helipad H1

Dimensions: 30 x 30 ft. / 9 x 9 m
Surface: turf
Traffic pattern: leftleft

Heliport Ownership and Management from official FAA records

Ownership: Privately-owned
Owner: KENNETH R. ANDERSON
6874 LONGVIEW DR.
NIWOT, CO 80544
Phone 303-652-2354

Additional Remarks

A52-H1 30' TREES 125' NW, 35' BLDG 100 N.
FOR CD CTC DENVER APCH AT 303-342-1916.

Instrument Procedures

There are no published instrument procedures at 85CO.

Some nearby airports with instrument procedures:

KLMO - Vance Brand Airport (3 nm N)
KEIK - Erie Municipal Airport (8 nm SE)
KBJC - Rocky Mountain Metropolitan Airport (12 nm S)
KFNL - Northern Colorado Regional Airport (21 nm N)
KDEN - Denver International Airport (27 nm SE)
 
Loc | Ops | Rwys | IFR | FBO | Links
Com | Nav | Svcs | Stats | Notes

AirBoss

 
Area around 85CO (Anderson Heliport)
 
Road maps at: MapQuest Bing Google
 
Aerial photo
No photo
 
Sectional chart

 
Airport distance calculator
Flying to Anderson Heliport? Find the distance to fly.

From to 85CO

Sunrise and sunset
Times for 23-Nov-2020
 Local
(UTC-7)
 Zulu
(UTC)
Morning civil twilight06:2813:28
Sunrise06:5713:57
Sunset16:3723:37
Evening civil twilight17:0700:07

Current date and time
Zulu (UTC)  23-Nov-2020 16:05:18
Local (UTC-7)  23-Nov-2020 09:05:18
 
METAR
KLMO 
3nm N 
231555Z AUTO 00000KT 10SM CLR 02/M08 A2984 RMK AO2 T00221076
K1V5 
5nm SW 
AWOS 118.825 303-541-9540
No observation available
KBDU 
5nm SW 
231548Z AUTO 00000KT 10SM CLR 01/M11 A2982 RMK AO2
KEIK 
8nm SE 
231555Z AUTO 00000KT 10SM CLR 00/M09 A2983 RMK AO2 T00031092
KBJC 
12nm S 
231545Z 02005KT 10SM FEW200 00/M12 A2982
TAF
KBJC 
12nm S 
231129Z 2312/2412 28005KT P6SM SCT200 FM231700 03006KT P6SM SCT200 FM232200 33007KT P6SM SCT120 BKN200 FM240300 30006KT P6SM VCSH SCT080 BKN120 FM240900 35009KT 5SM -RASN SCT010 OVC020 FM241100 01012G20KT 1SM -SN BR OVC009
NOTAMs
Click for the latest NOTAMs
NOTAMs are issued by the DoD/FAA and will open in a separate window not controlled by AirNav.

 

 
 

Would you like to see your business listed on this page?

 If your business provides an interesting product or service to pilots, flight crews, aircraft, or users of the Anderson Heliport, you should consider listing it here.  To start the listing process, click on the button below
 
Add a business
 

Other Pages about Anderson Heliport

Update a link
 
Copyright © AirNav, LLC. All rights reserved. Privacy Policy  Contact